CZ-6A DEB

Satellite information

Favourite Embed

Satellite Type and Status

DEBRISIN ORBIT

Key statistics

Satellite CZ-6A DEB at a glance.

Uptime

1128

Days in orbit

Revolutions

≈ 14.3

Per day

Orbit

SSO

Sun Synchronous Orbit

Inclination

98.8

Latest

Satellite identification and parameters

Extended collection of information and parameters for CZ-6A DEB.

Object identification

Identified? True

Debris? True

Object name: CZ-6A DEB

International designator: 2022-151FV

Object number (NORAD): 54445

Object ID (CCSDS): 54445

Country: PEOPLES REPUBLIC OF CHINA (PRC)

Current information (Y/N): Y

RCS size: SMALL

Orbital parameters

Period: 100.478 minutes

Inclination: 98.7595 deg

SMA: 7159.338 km

Apoapsis: 819.441 km

Periapsis: 742.966 km

RAAN: 23.0666 deg

Eccentricy: 0.00534095

Argument of periapsis: 176.8647 deg

Mean anomaly: 183.2881 deg

Mean motion: 14.33155875 rev/day

Mean motion (dot): 0.00001356 rev/day2

B* drag term: 0.00050239236 1/REarth

Two-line elements (TLE)

Creation date: Dec. 12, 2025, 10:14 a.m.

Reference frame: TEME

Reference center: EARTH

Epoch: Dec. 12, 2025, 1:36 a.m. UTC

TLE line 0: 0 CZ-6A DEB

TLE line 1: 1 54445U 22151FV 25346.06723560 .00001356 00000-0 50239-3 0 9999

TLE line 2: 2 54445 98.7595 23.0666 0053409 176.8647 183.2881 14.33155875160819

Live tracking on map

Real-time ground track for satellite CZ-6A DEB.

In-orbit conjunctions

A list of the most updated potential collisions computed for object CZ-6A DEB.

Target Orbit TCA Probability of collision Miss distance Type
SL-16 DEB LEO 2025-08-22 17:49:26 0.0001159971 50.0 (m) DEBRIS
SL-8 DEB LEO 2025-06-21 09:37:43 0.0001715667 851.0 (m) DEBRIS
COSMOS 2251 DEB LEO 2025-04-11 13:11:05 0.000232025 416.0 (m) DEBRIS
COSMOS 2251 DEB LEO 2024-08-01 13:22:30 0.0002456451 129.0 (m) DEBRIS

Associated space launch

Chinese satellite reported for atmospheric/ocean/environmental/spatial parameter research purposes, details TBD.

CZ-6A DEB was lifted into orbit during the mission ‘Long March 6A | Yunhai 3’, on board a Long March 6A space rocket.

The launch took place on Nov. 11, 2022, 10:52 p.m. from Launch Complex 9A.

For more information about the launch, click the button.

Launch to space Long March 6A | Yunhai 3
Long March 6A | Yunhai 3

Agency: N/A

Status: Launch Successful

Launch date: Nov. 11, 2022, 10:52 p.m. UTC

Rocket: Long March 6A

Launch pad: Launch Complex 9A

Location: Taiyuan Satellite Launch Center, People's Republic of China

...

Latest news about this satellite

There are no fresh news available about this satellite. Check back as we update our databases every day.


Newsletter sign-up

Weekly statistics, charts and insights to help you stay on top of the space industry.